AirNav   ProFlight Series 2 Aviation Headset
 
 494 users online  

6A7 Brocker Lake Seaplane Base
Big Lake, Alaska, USA

GOING TO BIG LAKE?


FAA INFORMATION EFFECTIVE 18 JUNE 2020

Location

FAA Identifier: 6A7
Lat/Long: 61-28-54.6200N 149-46-23.6800W
61-28.910333N 149-46.394667W
61.4818389,-149.7732444
(estimated)
Elevation: 100 ft. / 30 m (estimated)
From city: 3 miles SE of BIG LAKE, AK
Time zone: UTC -8 (UTC -9 during Standard Time)
Zip code: 99567

Seaplane Base Operations

Seaplane Base use: Open to the public
Activation date: 05/2006
Control tower: no
ARTCC: ANCHORAGE CENTER
FSS: KENAI FLIGHT SERVICE STATION [907-283-7211]
NOTAMs facility: ENA (NOTAM-D service not available)
Attendance: UNATNDD
Wind indicator: yes, WIND INDICATOR LOCATED ON EAST SIDE OF THE LAKE.
Segmented circle: no

Seaplane Base Communications

CTAF: 122.8
WX AWOS-3P at BCV (9 nm SE): 135.55 (907-688-0826)
WX AWOS-3P at IYS (9 nm NE): 135.25 (907-373-3801)
WX ASOS at FRN (13 nm S): 134.25
WX ASOS at MRI (16 nm S): 124.25 (907-271-5277)
WX ASOS at LHD (19 nm S): PHONE 907-245-5432
WX ASOS at ANC (20 nm S): PHONE 907-271-5278

Nearby radio navigation aids

VOR radial/distance  VOR name  Freq  Var
BGQr114/7.6BIG LAKE VORTAC112.5019E
TEDr358/19.6ANCHORAGE VOR/DME113.1518E

 
NDB name  Hdg/Dist  Freq  Var  ID
CAMPBELL LAKE007/20.333816ECMQ -.-. -- --.-

Seaplane Base Services

Runway Information

Runway ALL/WAY

Dimensions: 1200 x 100 ft. / 366 x 30 m
Surface: water, in excellent condition
RUNWAY ALL  RUNWAY WAY
Traffic pattern: leftleft

Seaplane Base Ownership and Management from official FAA records

Ownership: Publicly-owned
Owner: STATE OF AK DNR
DEPT OF NATURAL RESOURCES, 550 W 7TH AVE STE 900
ANCHORAGE, AK 99501
Phone 907-269-8400

Seaplane Base Operational Statistics

Aircraft based on the field: 1
Single engine airplanes: 1
    
Aircraft operations: 50/year *
80% local general aviation
20% transient general aviation
* for 12-month period ending 31 December 2018

Additional Remarks

PUBLIC ACCESS AT NORTH END OF LAKE. NO DESIGNATED TRANSIENT AREAS.
WX CAMERA AVBL ON INTERNET AT HTTP://AVCAMS.FAA.GOV

Instrument Procedures

There are no published instrument procedures at 6A7.

Some nearby airports with instrument procedures:

PAGQ - Big Lake Airport (3 nm N)
PAWS - Wasilla Airport (9 nm NE)
PAFR - Bryant Army Airfield Heliport (13 nm S)
PAED - Elmendorf Air Force Base (14 nm S)
PAMR - Merrill Field Airport (16 nm S)
PAUO - Willow Airport (18 nm NW)
PANC - Ted Stevens Anchorage International Airport (20 nm S)
 
Loc | Ops | Rwys | IFR | FBO | Links
Com | Nav | Svcs | Stats | Notes

Crowley
 
Area around 6A7 (Brocker Lake Seaplane Base)
 
Road maps at: MapQuest Bing Google
 
Aerial photo
No photo
 
Sectional chart

 
Airport distance calculator
Flying to Brocker Lake Seaplane Base? Find the distance to fly.

From to 6A7

Sunrise and sunset
Times for 11-Jul-2020
 Local
(UTC-8)
 Zulu
(UTC)
Morning civil twilight02:5510:55
Sunrise04:4312:43
Sunset23:2607:26
Evening civil twilight01:1409:14

Current date and time
Zulu (UTC)  11-Jul-2020 11:19:45
Local (UTC-8)  11-Jul-2020 03:19:45
 
METAR
PABV 
8nm SE 
111056Z AUTO 00000KT 10SM RA OVC039 13/12 A2978 RMK AO2 RAB44 SLP089 P0000 T01280117
PAFR 
13nm S 
111058Z AUTO 36003KT 10SM SCT033 BKN041 BKN260 13/12 A2973 RMK AO2 SLP073 T01260116 $
PAED 
14nm S 
111056Z 06004KT 10SM BKN045 14/11 A2976 RMK AO2A SLP073 T01440112 $
PAMR 
16nm S 
111053Z 00000KT 10SM OVC043 16/10 A2975 RMK AO2 SLP075 T01560100
PALH 
19nm S 
111053Z 18004KT 10SM BKN045 OVC060 15/12 A2976 RMK AO2 SLP080 T01500122
TAF
PAED 
14nm S 
111000Z 1110/1216 VRB05KT 9999 FEW010 BKN030 QNH2972INS BECMG 1119/1120 24009KT 9999 VCSH BKN050 QNH2970INS BECMG 1201/1202 25009KT 8000 -SHRA BKN040 QNH2970INS BECMG 1207/1208 VRB04KT 9999 VCSH BKN040 QNH2972INS TX20/1202Z TN13/1113Z
NOTAMs
Click for the latest NOTAMs
NOTAMs are issued by the DoD/FAA and will open in a separate window not controlled by AirNav.

 

 
 

Would you like to see your business listed on this page?

 If your business provides an interesting product or service to pilots, flight crews, aircraft, or users of the Brocker Lake Seaplane Base, you should consider listing it here.  To start the listing process, click on the button below
 
Add a business
 

Other Pages about Brocker Lake Seaplane Base

Update a link
 
Copyright © AirNav, LLC. All rights reserved. Privacy Policy  Contact